Location: Orange
(33.2833°S, 149.1000°E)
Time: 10:52:41
(UTC+11:00)

N. Korean satellite - Pass Details

Date: 05 December 2021
Orbit: 447 x 491 km, 97.3° (Epoch: 23 January)

Event Time Altitude Azimuth Distance (km) Brightness Sun altitude
Rises 04:44:10 0° 48° (NE) 2,476 10.3 -11.9°
Reaches altitude 10° 04:46:44 10° 70° (ENE) 1,622 9.7 -11.5°
Maximum altitude 04:48:58 16° 110° (ESE) 1,301 9.9 -11.1°
Drops below altitude 10° 04:51:13 10° 149° (SSE) 1,656 10.4 -10.7°
Sets 04:53:53 0° 171° (S) 2,556 11.0 -10.3°
